Regional Weather Roundup
Issued by NWS

Home | Current Version | Previous Version | Text Only | Print | Product List | Glossary On
Versions: 1 2 3 4 5 6 7 8 9 10 11 12 13 14 15 16 17 18 19 20 21 22 23 24 25 26 27 28
000
ASUS45 KBOU 161607
RWRCO

WEATHER ROUNDUP FOR COLORADO
NATIONAL WEATHER SERVICE DENVER/BOULDER CO
1000 AM MDT MON OCT 16 2017

NOTE: "FAIR" INDICATES FEW OR NO CLOUDS BELOW 12000 FEET WITH NO
SIGNIFICANT WEATHER AND/OR OBSTRUCTIONS TO VISIBILITY.

COZ001>005-013-030-031-161700-
...NORTHWEST COLORADO...

CITY           SKY/WX    TMP DP  RH WIND       PRES   REMARKS
CRAIG          FAIR      41  24  51 CALM      30.48S
HAYDEN         FAIR      41  17  38 E13       30.50S
MEEKER         FAIR      43  17  35 CALM      30.48F
RABBIT EARS PA FAIR      41   0  17 W7        30.60R
STEAMBOAT SPGS FAIR      37  20  51 CALM      30.50S
WALDEN         FAIR      50   1  13 SW14      30.49R
$$

COZ006>008-011-161700-
...WEST CENTRAL VALLEYS...

CITY           SKY/WX    TMP DP  RH WIND       PRES   REMARKS
GRAND JUNCTION FAIR      47  18  31 S6        30.50S
MONTROSE       FAIR      45  11  25 CALM      30.53F
EAGLE          FAIR      32  18  56 W3        30.57F
RIFLE          FAIR      39  20  46 CALM      30.52F
DELTA          FAIR      42  12  29 CALM      30.53S
NUCLA          FAIR      43   5  21 CALM      30.56F
$$

COZ017>023-064>068-161700-
...SOUTHWEST COLORADO...

CITY           SKY/WX    TMP DP  RH WIND       PRES   REMARKS
DURANGO        FAIR      45  20  36 E3        30.54S
CORTEZ         FAIR      50  15  24 CALM      30.51S
PAGOSA SPRINGS FAIR      48  13  24 CALM      30.58S
TELLURIDE      NOT AVBL
WOLF CREEK PAS FAIR      43  -6  13 S7        30.79R
$$

COZ009-010-012-014-032>034-037-058>063-161700-
...CENTRAL COLORADO...

CITY           SKY/WX    TMP DP  RH WIND       PRES   REMARKS
ASPEN          FAIR      46   7  20 CALM      30.52F
BUENA VISTA    FAIR      42  11  28 CALM      30.54F
COPPER MTN     SNOW      39   3  22 W12G20    30.69S VSB 1/4
BERTHOUD PASS  FAIR      32  23  69 NW41G49   30.62S WCI  16
COTTONWOOD PAS FAIR      54  -8   8 CALM      30.60S
GUNNISON       FAIR      31  13  47 CALM      30.64F
KREMMLING      FAIR      36  23  60 CALM      30.57F
LEADVILLE      FAIR      50  -8   9 N7        30.58F
MONARCH PASS   FAIR      36  -6  17 W24G31    30.80S
SALIDA         NOT AVBL
SUNLIGHT       FAIR      41  -4  15 SW7       30.69S
WILKERSON PASS FAIR      37 -13  11 W8G20     30.67R
$$

COZ069>075-161700-
...SAN LUIS VALLEY/SANGRE DE CRISTO MOUNTAINS...

CITY           SKY/WX    TMP DP  RH WIND       PRES   REMARKS
ALAMOSA        FAIR      41  15  35 CALM      30.58S
DEL NORTE      FAIR      47   8  20 W5        30.59S
LA VETA PASS   FAIR      43  10  26 SW29G38   30.70R
SAGUACHE       FAIR      45   7  21 NW10      30.59S
$$

COZ035-036-038>040-161700-
...NORTHERN COLORADO FRONT RANGE...

CITY           SKY/WX    TMP DP  RH WIND       PRES   REMARKS
DENVER INTL AP PTSUNNY   64  19  17 S9        30.31F
DMNS CITY PARK   N/A     64  17  17 S5G12     30.31F
AURORA         PTSUNNY   63  19  18 SW14      30.33F
FRONT RANGE AP PTSUNNY   66  19  16 SW9       30.33S
ERIE MUNI ARPT FAIR      53  29  39 NW3       30.36S
BOULDER MUN AP FAIR      48  32  53 CALM      30.30F
CENTENNIAL     PTSUNNY   63  12  13 SW13      30.34F
BROOMFIELD     PTSUNNY   64  28  25 W14       30.33S
FORT COLLINS   FAIR      51  31  46 CALM      30.30F
LONGMONT       FAIR      55  29  36 CALM      30.31F
$$

COZ041-046-047-076>085-087-088-161700-
...PIKES PEAK/PALMER DIVIDE AND SOUTHERN FOOTHILLS...

CITY           SKY/WX    TMP DP  RH WIND       PRES   REMARKS
COLO. SPRINGS  PTSUNNY   64  14  14 CALM      30.39F
A. F. ACADEMY  PTSUNNY   57  25  28 S5        30.39S
SCHRIEVER AFB  FAIR      61  17  18 CALM      30.39S
CHEYENNE MTN   PTSUNNY   57  21  24 CALM      30.36S
ELLICOTT       FAIR     N/A N/A N/A CALM      30.37S
FALCON         FAIR      67   6   9 W5        30.42S
FORT CARSON    MOSUNNY   55  21  26 NW5       30.37S
LIMON          FAIR      58  29  33 SE3       30.34F
MONUMENT HILL  NOT AVBL
CANON CITY     SUNNY     57  18  21 W15       30.37S
WALSENBURG     FAIR      68  16  13 W17       30.39F
TRINIDAD       FAIR      59  22  24 W10       30.39S
$$

COZ042>045-048>051-090-091-161700-
...NORTHEAST COLORADO...

CITY           SKY/WX    TMP DP  RH WIND       PRES   REMARKS
GREELEY ARPT   FAIR      42  34  73 CALM      30.31F
AKRON          FAIR      56  26  31 W8        30.28
BURLINGTON     FAIR      68  28  22 SW13      30.30F
WRAY           FAIR      61  30  31 W3        30.27F
YUMA           NOT AVBL
STERLING       FAIR      50  34  53 SW12      30.26F
HOLYOKE        FAIR      55  34  44 SW5       30.27F
FORT MORGAN    FAIR      49  30  48 SW10      30.29F
$$

COZ086-089-092>099-161700-
...SOUTHEAST COLORADO...

CITY           SKY/WX    TMP DP  RH WIND       PRES   REMARKS
PUEBLO         FAIR      50  30  46 S5        30.35F
LA JUNTA       FAIR      55  29  36 W8        30.34S
LAMAR          FAIR      54  30  40 W10       30.33S
SPRINGFIELD      N/A     58  34  40 S8        30.34F
$$




USA.gov is the U.S. government's official web portal to all federal, state and local government web resources and services.